Weather History for KOGA - April, 2013

Change the Weather History Date:

Wednesday, April 17, 2013

  Actual Average Record
Temperature  
Mean Temperature 31 °F -  
Max Temperature 32 °F 64 °F 89 °F (1985)
Min Temperature 28 °F 34 °F 19 °F (1956)
Degree Days  
Heating Degree Days 34    
Moisture  
Dew Point 28 °F    
Average Humidity 90    
Maximum Humidity 96    
Minimum Humidity 80    
Precipitation  
Precipitation 0.00 in - - ()
Sea Level Pressure  
Sea Level Pressure 30.03 in    
Wind  
Wind Speed 17 mph (NNE)    
Max Wind Speed 29 mph    
Max Gust Speed 33 mph    
Visibility 7 miles    
Events Snow    
Averages and records for this station are not official NWS values.
T = Trace of Precipitation, MM = Missing Value Source: NWS Daily Summary

Daily Weather History Graph

Daily Weather History Graph

Search for Another Location

Airport or City:

Trip Planner

Search our weather history database for the weather conditions in past years. The results will help you decide how hot, cold, wet, or windy it might be!

Date:

Astronomy

Apr. 17, 2013 Rise Set
Actual Time 6:04 AM MDT 7:29 PM MDT
Civil Twilight 5:35 AM MDT 7:58 PM MDT
Nautical Twilight 5:01 AM MDT 8:32 PM MDT
Astronomical Twilight 4:24 AM MDT 9:09 PM MDT
Moon 11:19 AM MDT (4/17) 1:09 AM MDT (4/17)
Length of Visible Light 14h 22m
Length of Day
13h 25m
Waxing Crescent, 43% of the Moon is Illuminated
Apr 17
Waxing Crescent
Apr 18
First Quarter
Apr 25
Full
May 2
Last Quarter
May 9
New

Hourly Weather History & Observations

Time (MDT) Temp. Windchill Dew Point Humidity Pressure Visibility Wind Dir Wind Speed Gust Speed Precip Events Conditions
12:15 AM 34.7 °F 25.5 °F 33.1 °F 94% 30.07 in 3.0 mi East 13.8 mph - N/A   Overcast
12:35 AM 32.9 °F 23.2 °F 31.8 °F 96% 30.07 in 4.0 mi East 13.8 mph - N/A   Overcast
12:55 AM 32.9 °F 23.2 °F 31.5 °F 94% 30.07 in 7.0 mi East 13.8 mph - N/A   Overcast
1:15 AM 32.5 °F 22.3 °F 31.5 °F 96% 30.07 in 7.0 mi ENE 15.0 mph 19.6 mph N/A   Overcast
1:35 AM 32.4 °F 22.1 °F 31.1 °F 95% 30.07 in 7.0 mi ENE 15.0 mph - N/A   Overcast
1:55 AM 32.2 °F 23.2 °F 30.9 °F 95% 30.06 in 10.0 mi ENE 11.5 mph - N/A   Overcast
2:15 AM 32.2 °F 22.7 °F 30.9 °F 95% 30.05 in 10.0 mi ENE 12.7 mph - N/A   Overcast
2:35 AM 32.0 °F 21.6 °F 30.6 °F 94% 30.03 in 10.0 mi ENE 15.0 mph - N/A   Overcast
2:55 AM 32.0 °F 23.0 °F 30.2 °F 93% 30.02 in 10.0 mi ENE 11.5 mph - N/A   Overcast
3:15 AM 32.0 °F 22.1 °F 30.4 °F 94% 30.03 in 10.0 mi ENE 13.8 mph - N/A   Overcast
3:35 AM 32.0 °F 21.6 °F 30.4 °F 94% 30.04 in 10.0 mi ENE 15.0 mph 18.4 mph N/A   Overcast
3:55 AM 32.0 °F 22.5 °F 30.2 °F 93% 30.04 in 10.0 mi ENE 12.7 mph 17.3 mph N/A   Overcast
4:15 AM 32.0 °F 21.6 °F 30.2 °F 93% 30.04 in 10.0 mi NE 15.0 mph 19.6 mph N/A   Overcast
4:35 AM 32.0 °F 20.8 °F 30.2 °F 93% 30.03 in 7.0 mi NE 17.3 mph - N/A   Overcast
4:55 AM 31.6 °F 20.7 °F 30.0 °F 94% 30.04 in 7.0 mi NE 16.1 mph - N/A   Overcast
5:15 AM 31.3 °F 19.9 °F 29.8 °F 94% 30.04 in 7.0 mi NE 17.3 mph 20.7 mph N/A   Overcast
5:35 AM 31.1 °F 19.7 °F 29.5 °F 94% 30.03 in 7.0 mi NE 17.3 mph - N/A   Overcast
5:55 AM 30.7 °F 18.8 °F 29.1 °F 94% 30.03 in 7.0 mi NE 18.4 mph - N/A   Overcast
6:15 AM 30.2 °F 18.9 °F 28.6 °F 94% 30.04 in 7.0 mi ENE 16.1 mph 23.0 mph N/A   Overcast
6:35 AM 29.8 °F 17.7 °F 28.4 °F 94% 30.04 in 7.0 mi NE 18.4 mph - N/A   Overcast
6:55 AM 29.8 °F 18.9 °F 28.2 °F 94% 30.05 in 4.0 mi NE 15.0 mph - N/A   Overcast
7:15 AM 29.7 °F 18.2 °F 28.0 °F 94% 30.05 in 5.0 mi NE 16.1 mph - N/A   Overcast
7:35 AM 29.8 °F 17.7 °F 28.0 °F 93% 30.05 in 5.0 mi NE 18.4 mph - N/A   Overcast
8:15 AM 29.3 °F 17.0 °F 27.5 °F 93% 30.04 in 7.0 mi NE 18.4 mph - N/A   Overcast
8:35 AM 29.3 °F 18.6 °F 27.5 °F 93% 30.04 in 7.0 mi NE 13.8 mph - N/A   Overcast
8:55 AM 29.5 °F 18.4 °F 27.7 °F 93% 30.03 in 5.0 mi NE 15.0 mph - N/A   Overcast
9:15 AM 29.5 °F 19.9 °F 27.5 °F 92% 30.02 in 5.0 mi NE 11.5 mph - N/A   Overcast
9:35 AM 29.3 °F 18.2 °F 27.3 °F 92% 30.02 in 7.0 mi NE 15.0 mph 19.6 mph N/A   Overcast
9:55 AM 29.7 °F 18.2 °F 27.5 °F 92% 30.02 in 10.0 mi NE 16.1 mph - N/A   Overcast
10:15 AM 30.0 °F 18.7 °F 28.0 °F 92% 30.02 in 10.0 mi NE 16.1 mph 21.9 mph N/A   Overcast
10:35 AM 30.2 °F 17.8 °F 27.9 °F 91% 30.00 in 10.0 mi NE 19.6 mph 27.6 mph N/A   Overcast
10:55 AM 30.2 °F 17.4 °F 28.0 °F 92% 29.99 in 10.0 mi NE 20.7 mph 27.6 mph N/A   Overcast
11:15 AM 30.7 °F 19.2 °F 28.2 °F 90% 30.00 in 10.0 mi NNE 17.3 mph - N/A   Overcast
11:35 AM 30.7 °F 18.1 °F 28.0 °F 90% 29.99 in 10.0 mi NE 20.7 mph 27.6 mph N/A   Overcast
11:55 AM 30.9 °F 18.7 °F 28.4 °F 90% 30.00 in 10.0 mi NE 19.6 mph 24.2 mph N/A   Overcast
12:15 PM 31.1 °F 19.3 °F 28.2 °F 89% 29.99 in 10.0 mi NE 18.4 mph - N/A   Overcast
12:35 PM 30.9 °F 19.8 °F 28.4 °F 90% 30.00 in 10.0 mi NE 16.1 mph - N/A   Overcast
12:55 PM 31.1 °F 19.3 °F 28.6 °F 90% 30.00 in 10.0 mi NE 18.4 mph 21.9 mph N/A   Overcast
1:15 PM 31.1 °F 20.1 °F 28.6 °F 90% 29.99 in 10.0 mi NE 16.1 mph - N/A   Overcast
1:35 PM 31.1 °F 20.1 °F 28.9 °F 92% 29.98 in 4.0 mi NNE 16.1 mph 24.2 mph N/A   Overcast
1:55 PM 31.5 °F 19.8 °F 29.3 °F 92% 29.99 in 3.0 mi NNE 18.4 mph 25.3 mph N/A   Overcast
2:35 PM 31.8 °F 19.9 °F 29.5 °F 91% 29.97 in 2.0 mi NNE 19.6 mph 25.3 mph N/A   Overcast
2:55 PM 31.6 °F 19.3 °F 29.3 °F 91% 29.96 in 2.5 mi North 20.7 mph 26.5 mph N/A   Overcast
3:15 PM 31.3 °F 18.9 °F 28.9 °F 91% 29.96 in 4.0 mi North 20.7 mph 25.3 mph N/A   Overcast
3:35 PM 30.9 °F 19.1 °F 27.9 °F 88% 29.97 in 7.0 mi North 18.4 mph 27.6 mph N/A   Overcast
3:55 PM 30.6 °F 17.9 °F 27.3 °F 88% 29.99 in 7.0 mi North 20.7 mph 26.5 mph N/A   Overcast
4:15 PM 30.2 °F 16.8 °F 27.1 °F 88% 29.99 in 5.0 mi North 23.0 mph 29.9 mph N/A   Overcast
4:35 PM 30.0 °F 16.9 °F 26.6 °F 87% 30.00 in 4.0 mi North 21.9 mph 29.9 mph N/A   Overcast
4:55 PM 29.8 °F 16.3 °F 26.4 °F 87% 30.01 in 5.0 mi North 23.0 mph 29.9 mph N/A Snow Light Snow
5:15 PM 29.3 °F 15.9 °F 25.9 °F 87% 30.02 in 3.0 mi NNE 21.9 mph 26.5 mph N/A Snow Light Snow
5:35 PM 29.3 °F 16.2 °F 25.9 °F 87% 30.03 in 2.0 mi NNE 20.7 mph 28.8 mph N/A Snow Light Snow
5:55 PM 28.8 °F 14.6 °F 25.7 °F 88% 30.02 in 1.0 mi North 24.2 mph 29.9 mph N/A Snow Light Snow
6:15 PM 28.4 °F 14.1 °F 25.7 °F 90% 30.03 in 0.8 mi North 24.2 mph 29.9 mph N/A Snow Light Snow
6:35 PM 28.2 °F 12.8 °F 25.5 °F 90% 30.01 in 0.8 mi North 28.8 mph 32.2 mph N/A Snow Light Snow
6:55 PM 28.2 °F 14.8 °F 25.5 °F 90% 30.02 in 1.2 mi North 20.7 mph - N/A Snow Light Snow
7:15 PM 28.2 °F 14.5 °F 25.0 °F 88% 30.03 in 1.8 mi North 21.9 mph 27.6 mph N/A Snow Light Snow
7:35 PM 28.4 °F 14.7 °F 24.4 °F 85% 30.05 in 7.0 mi North 21.9 mph 29.9 mph N/A   Overcast
7:55 PM 28.4 °F 13.8 °F 23.5 °F 82% 30.05 in 10.0 mi North 25.3 mph 33.4 mph N/A   Overcast
8:15 PM 28.4 °F 14.4 °F 23.0 °F 80% 30.07 in 10.0 mi North 23.0 mph 29.9 mph N/A   Overcast
8:55 PM 28.2 °F 16.8 °F 23.5 °F 83% 30.09 in 10.0 mi North 15.0 mph - N/A   Overcast
9:15 PM 28.4 °F 14.7 °F 23.0 °F 80% 30.08 in 10.0 mi North 21.9 mph 25.3 mph N/A   Overcast
9:35 PM 28.2 °F 15.9 °F 23.0 °F 81% 30.07 in 10.0 mi North 17.3 mph 24.2 mph N/A   Overcast
9:55 PM 28.2 °F 15.9 °F 23.2 °F 81% 30.07 in 10.0 mi North 17.3 mph - N/A   Overcast
10:15 PM 28.2 °F 15.9 °F 23.7 °F 83% 30.06 in 10.0 mi North 17.3 mph 23.0 mph N/A   Overcast
10:35 PM 28.4 °F 14.4 °F 23.5 °F 82% 30.05 in 10.0 mi North 23.0 mph 29.9 mph N/A   Overcast
10:55 PM 28.4 °F 15.1 °F 23.5 °F 82% 30.03 in 10.0 mi North 20.7 mph 28.8 mph N/A   Overcast
11:15 PM 28.4 °F 13.3 °F 23.0 °F 80% 30.02 in 10.0 mi North 27.6 mph 33.4 mph N/A   Overcast
11:35 PM 28.4 °F 15.8 °F 23.2 °F 81% 30.03 in 10.0 mi North 18.4 mph 32.2 mph N/A   Overcast
11:55 PM 28.2 °F 13.6 °F 22.8 °F 80% 30.01 in 10.0 mi North 25.3 mph 33.4 mph N/A   Overcast